Seminole, TX

12:20 AM CDT on October 21, 2017 (GMT -0500)
Seminole

Weather History for KGNC - January, 2013

Change the Weather History Date:

Thursday, January 3, 2013

  Actual Average (KHOB) Record (KHOB)
Temperature  
Mean Temperature 32 °F -  
Max Temperature 35 °F 55 °F 80 °F (2006)
Min Temperature 29 °F 29 °F 18 °F (1949)
Degree Days  
Heating Degree Days 33    
Moisture  
Dew Point 23 °F    
Average Humidity 70    
Maximum Humidity 96    
Minimum Humidity 54    
Precipitation  
Precipitation 0.01 in - - ()
Sea Level Pressure  
Sea Level Pressure 30.37 in    
Wind  
Wind Speed 8 mph (East)    
Max Wind Speed 13 mph    
Max Gust Speed -    
Visibility 9 miles    
Events Rain , Snow    
Averages and records for this station are not official NWS values.
T = Trace of Precipitation, MM = Missing Value Source: NWS Daily Summary

Daily Weather History Graph

Daily Weather History Graph

Search for Another Location

Airport or City:

Trip Planner

Search our weather history database for the weather conditions in past years. The results will help you decide how hot, cold, wet, or windy it might be!

Date:

Astronomy

Jan. 03, 2013 Rise Set
Actual Time 7:53 AM CST 5:57 PM CST
Civil Twilight 7:26 AM CST 6:24 PM CST
Nautical Twilight 6:55 AM CST 6:55 PM CST
Astronomical Twilight 6:25 AM CST 7:25 PM CST
Moon No Moon Rise 11:27 AM CST (1/3)
Length of Visible Light 10h 58m
Length of Day
10h 04m
Waning Gibbous, 65% of the Moon is Illuminated
Jan 3
Waning Gibbous
Jan 4
Last Quarter
Jan 11
New
Jan 18
First Quarter
Jan 26
Full

Hourly Weather History & Observations

Time (CST) Temp. Windchill Dew Point Humidity Pressure Visibility Wind Dir Wind Speed Gust Speed Precip Events Conditions
12:15 AM 32.0 °F 24.8 °F 23.0 °F 69% 30.30 in 10.0 mi ENE 8.1 mph - N/A   Overcast
12:35 AM 32.4 °F 25.3 °F 23.0 °F 68% 30.30 in 10.0 mi ENE 8.1 mph - N/A   Mostly Cloudy
12:55 AM 32.5 °F 25.5 °F 23.0 °F 68% 30.30 in 10.0 mi ENE 8.1 mph - N/A   Mostly Cloudy
1:15 AM 33.1 °F 26.9 °F 23.0 °F 66% 30.30 in 10.0 mi East 6.9 mph - N/A   Mostly Cloudy
1:35 AM 33.4 °F 28.1 °F 23.0 °F 66% 30.29 in 10.0 mi East 5.8 mph - N/A   Mostly Cloudy
1:55 AM 33.6 °F 27.5 °F 23.0 °F 65% 30.30 in 10.0 mi ENE 6.9 mph - N/A   Scattered Clouds
2:15 AM 33.4 °F 27.3 °F 23.0 °F 66% 30.30 in 10.0 mi ENE 6.9 mph - N/A   Mostly Cloudy
2:35 AM 33.3 °F 27.9 °F 23.0 °F 66% 30.31 in 10.0 mi East 5.8 mph - N/A   Mostly Cloudy
2:55 AM 32.9 °F 26.7 °F 23.0 °F 67% 30.31 in 10.0 mi ENE 6.9 mph - N/A   Mostly Cloudy
3:15 AM 32.5 °F 27.1 °F 22.6 °F 67% 30.33 in 10.0 mi ENE 5.8 mph - N/A   Mostly Cloudy
3:35 AM 32.4 °F 26.0 °F 22.3 °F 66% 30.33 in 10.0 mi ENE 6.9 mph - N/A   Mostly Cloudy
3:55 AM 32.0 °F 23.6 °F 21.6 °F 65% 30.33 in 10.0 mi ENE 10.4 mph - N/A   Mostly Cloudy
4:15 AM 32.0 °F 24.8 °F 20.8 °F 63% 30.33 in 10.0 mi ENE 8.1 mph - N/A   Mostly Cloudy
4:35 AM 31.8 °F 25.4 °F 21.2 °F 65% 30.33 in 10.0 mi ENE 6.9 mph - N/A   Mostly Cloudy
4:55 AM 31.5 °F 24.2 °F 21.7 °F 67% 30.32 in 10.0 mi ENE 8.1 mph - N/A   Mostly Cloudy
5:15 AM 31.5 °F 23.5 °F 22.1 °F 68% 30.33 in 10.0 mi ENE 9.2 mph - N/A   Mostly Cloudy
5:35 AM 31.3 °F 23.3 °F 22.5 °F 70% 30.34 in 10.0 mi ENE 9.2 mph - N/A   Mostly Cloudy
5:55 AM 31.1 °F 23.1 °F 22.6 °F 71% 30.34 in 10.0 mi ENE 9.2 mph - N/A   Mostly Cloudy
6:15 AM 31.1 °F 23.1 °F 22.5 °F 70% 30.34 in 10.0 mi ENE 9.2 mph - N/A   Scattered Clouds
6:35 AM 30.9 °F 24.3 °F 22.8 °F 72% 30.35 in 10.0 mi NE 6.9 mph - N/A   Scattered Clouds
6:55 AM 30.9 °F 24.3 °F 22.8 °F 72% 30.35 in 10.0 mi NE 6.9 mph - N/A   Scattered Clouds
7:15 AM 30.7 °F 23.3 °F 23.0 °F 73% 30.36 in 10.0 mi NE 8.1 mph - N/A   Scattered Clouds
7:35 AM 30.7 °F 23.3 °F 22.6 °F 72% 30.36 in 10.0 mi NE 8.1 mph - N/A   Scattered Clouds
7:55 AM 30.6 °F 22.4 °F 22.5 °F 72% 30.38 in 10.0 mi ENE 9.2 mph - N/A   Mostly Cloudy
8:15 AM 30.6 °F 23.1 °F 22.6 °F 72% 30.40 in 10.0 mi ENE 8.1 mph - N/A   Overcast
8:35 AM 30.2 °F 21.9 °F 22.8 °F 74% 30.39 in 10.0 mi ENE 9.2 mph - N/A   Mostly Cloudy
8:55 AM 30.6 °F 22.4 °F 23.0 °F 74% 30.40 in 10.0 mi ENE 9.2 mph - N/A   Mostly Cloudy
9:35 AM 30.9 °F 22.2 °F 22.8 °F 72% 30.41 in 10.0 mi ENE 10.4 mph - N/A   Mostly Cloudy
9:55 AM 31.3 °F 22.7 °F 22.6 °F 70% 30.41 in 10.0 mi East 10.4 mph - N/A   Scattered Clouds
10:15 AM 31.8 °F 23.3 °F 22.6 °F 69% 30.43 in 10.0 mi ENE 10.4 mph - N/A   Scattered Clouds
10:35 AM 32.0 °F 22.5 °F 22.5 °F 68% 30.42 in 10.0 mi ENE 12.7 mph - N/A   Scattered Clouds
10:55 AM 32.0 °F 23.6 °F 22.1 °F 67% 30.44 in 10.0 mi East 10.4 mph - N/A   Scattered Clouds
11:15 AM 32.2 °F 24.4 °F 21.7 °F 65% 30.44 in 10.0 mi East 9.2 mph - N/A   Scattered Clouds
11:35 AM 32.5 °F 24.8 °F 21.6 °F 64% 30.43 in 10.0 mi East 9.2 mph - N/A   Scattered Clouds
11:55 AM 33.4 °F 25.4 °F 21.2 °F 61% 30.44 in 10.0 mi East 10.4 mph - N/A   Clear
12:15 PM 34.2 °F 26.8 °F 20.8 °F 58% 30.42 in 10.0 mi East 9.2 mph - N/A   Clear
12:35 PM 34.7 °F 27.5 °F 20.5 °F 56% 30.41 in 10.0 mi East 9.2 mph - N/A   Clear
12:55 PM 34.7 °F 28.8 °F 20.1 °F 55% 30.40 in 10.0 mi East 6.9 mph - N/A   Clear
1:15 PM 34.9 °F 28.3 °F 19.9 °F 55% 30.40 in 10.0 mi ESE 8.1 mph - N/A   Clear
1:35 PM 35.1 °F 28.6 °F 19.8 °F 54% 30.39 in 10.0 mi ESE 8.1 mph - N/A   Clear
1:55 PM 34.9 °F 28.3 °F 19.9 °F 55% 30.38 in 10.0 mi ESE 8.1 mph - N/A   Clear
2:15 PM 35.1 °F 29.3 °F 19.9 °F 54% 30.38 in 10.0 mi ESE 6.9 mph - N/A   Clear
2:35 PM 35.2 °F 29.5 °F 20.1 °F 54% 30.38 in 10.0 mi ESE 6.9 mph - N/A   Clear
2:55 PM 35.2 °F 29.5 °F 20.5 °F 55% 30.38 in 10.0 mi ESE 6.9 mph - N/A   Scattered Clouds
3:15 PM 35.1 °F 27.4 °F 19.9 °F 54% 30.38 in 10.0 mi SE 10.4 mph - N/A   Scattered Clouds
3:35 PM 34.7 °F 26.4 °F 21.6 °F 59% 30.37 in 10.0 mi SE 11.5 mph - N/A   Scattered Clouds
3:55 PM 33.8 °F 26.4 °F 22.5 °F 63% 30.38 in 10.0 mi ESE 9.2 mph - N/A   Scattered Clouds
4:15 PM 33.4 °F 26.6 °F 22.1 °F 63% 30.38 in 10.0 mi SE 8.1 mph - N/A   Clear
4:35 PM 33.4 °F 26.6 °F 23.0 °F 66% 30.38 in 10.0 mi SSE 8.1 mph - N/A   Clear
4:55 PM 32.9 °F 25.9 °F 24.4 °F 71% 30.38 in 10.0 mi SSE 8.1 mph - N/A   Clear
5:15 PM 32.4 °F 24.6 °F 25.0 °F 74% 30.37 in 10.0 mi SE 9.2 mph - N/A   Clear
5:35 PM 32.0 °F 25.6 °F 24.8 °F 75% 30.39 in 10.0 mi SSE 6.9 mph - N/A   Scattered Clouds
5:55 PM 32.0 °F 24.8 °F 25.0 °F 75% 30.40 in 10.0 mi SSE 8.1 mph - N/A   Scattered Clouds
6:15 PM 32.0 °F 25.6 °F 24.8 °F 75% 30.38 in 10.0 mi SE 6.9 mph - N/A   Scattered Clouds
6:35 PM 31.8 °F 26.2 °F 24.8 °F 75% 30.38 in 10.0 mi SSE 5.8 mph - N/A   Mostly Cloudy
6:55 PM 31.8 °F 27.3 °F 24.8 °F 75% 30.37 in 10.0 mi SE 4.6 mph - N/A   Mostly Cloudy
7:15 PM 31.8 °F 28.5 °F 24.6 °F 75% 30.38 in 10.0 mi SSE 3.5 mph - N/A   Mostly Cloudy
7:35 PM 31.8 °F - 24.4 °F 74% 30.38 in 10.0 mi Calm Calm - N/A   Mostly Cloudy
7:55 PM 32.0 °F - 24.4 °F 74% 30.39 in 10.0 mi Calm Calm - N/A   Scattered Clouds
8:15 PM 32.0 °F - 24.4 °F 74% 30.39 in 10.0 mi Calm Calm - N/A   Clear
8:35 PM 31.8 °F 27.3 °F 24.8 °F 75% 30.40 in 10.0 mi SSW 4.6 mph - N/A   Clear
8:55 PM 32.0 °F 24.2 °F 25.0 °F 75% 30.41 in 10.0 mi SSW 9.2 mph - N/A   Clear
9:15 PM 31.5 °F 25.8 °F 25.7 °F 79% 30.41 in 10.0 mi SW 5.8 mph - N/A Rain Light Freezing Rain
9:35 PM 30.9 °F 24.3 °F 26.2 °F 83% 30.41 in 10.0 mi SSW 6.9 mph - N/A Rain Light Freezing Rain
9:55 PM 30.6 °F 23.8 °F 27.1 °F 87% 30.41 in 3.0 mi South 6.9 mph - N/A Snow Light Snow
10:15 PM 30.0 °F 23.2 °F 27.9 °F 92% 30.41 in 2.0 mi SSE 6.9 mph - N/A Snow Light Snow
10:35 PM 29.5 °F 24.5 °F 27.9 °F 94% 30.41 in 1.5 mi SSE 4.6 mph - N/A Snow Snow
10:55 PM 29.3 °F - 27.9 °F 94% 30.41 in 1.5 mi Calm Calm - 0.01 in Snow Light Snow
11:15 PM 29.1 °F - 27.9 °F 95% 30.42 in 3.0 mi Calm Calm - N/A Snow Light Snow
11:35 PM 29.1 °F - 28.0 °F 96% 30.42 in 3.0 mi Calm Calm - N/A Snow Light Snow
11:55 PM 29.1 °F - 28.0 °F 96% 30.42 in 3.0 mi Calm Calm - N/A Snow Light Snow